| time (UTC) | temp C | wind direction | speed KPH | gust KPH | rain 1hr cm | rain 24hr cm | rain mn cm | humidity % | barometer mb |
| 20260504141215 | 11 | 240 | 22.5 | 40.2 | 0.00 | 0.00 | 0.00 | 62 | 1018.5 |
| 20260504140704 | 11 | 240 | 22.5 | 40.2 | 0.00 | 0.00 | 0.00 | 59 | 1018.4 |
| 20260504140204 | 12 | 241 | 19.3 | 40.2 | 0.00 | 0.00 | 0.00 | 59 | 1018.2 |
| 20260504130204 | 7 | 260 | 11.3 | 16.1 | 0.00 | 0.00 | 0.00 | 75 | 1017.2 |
| 20260504120204 | 2 | 233 | 6.4 | 8.0 | 0.00 | 0.00 | 0.00 | 93 | 1016.8 |
| 20260504110704 | 1 | 280 | 8.0 | 8.0 | 0.00 | 0.00 | 0.00 | 92 | 1016.4 |
| 20260504110205 | 1 | 280 | 8.0 | 8.0 | 0.00 | 0.00 | 0.00 | 92 | 1016.3 |
| 20260504100204 | 0 | 280 | 8.0 | 8.0 | 0.00 | 0.00 | 0.00 | 92 | 1016.5 |
| 20260504081704 | 0 | 280 | 8.0 | 8.0 | 0.00 | 0.00 | 0.00 | 89 | 1016.5 |
| 20260504081204 | 0 | 280 | 8.0 | 8.0 | 0.00 | 0.00 | 0.00 | 89 | 1016.4 |
| 20260504080704 | 0 | 280 | 8.0 | 8.0 | 0.00 | 0.00 | 0.00 | 89 | 1016.4 |
| 20260504080203 | 0 | 280 | 8.0 | 8.0 | 0.00 | 0.00 | 0.00 | 89 | 1016.3 |
| 20260504070204 | 1 | 280 | 8.0 | 8.0 | 0.00 | 0.00 | 0.00 | 87 | 1016.6 |
| 20260504050704 | 1 | 280 | 8.0 | 8.0 | 0.00 | 0.00 | 0.00 | 83 | 1017.1 |
| 20260504050204 | 1 | 278 | 6.4 | 8.0 | 0.00 | 0.00 | 0.00 | 83 | 1017.1 |
| 20260504045704 | 1 | 220 | 4.8 | 4.8 | 0.00 | 0.00 | 0.00 | 83 | 1017.1 |
| 20260504045205 | 2 | 220 | 4.8 | 4.8 | 0.00 | 0.00 | 0.00 | 83 | 1017.1 |
| 20260504044704 | 2 | 220 | 4.8 | 4.8 | 0.00 | 0.00 | 0.00 | 83 | 1017.0 |
| 20260504044204 | 2 | 220 | 4.8 | 4.8 | 0.00 | 0.00 | 0.00 | 83 | 1017.0 |
| 20260504043703 | 2 | 220 | 4.8 | 4.8 | 0.00 | 0.00 | 0.00 | 82 | 1017.0 |
| 20260504043204 | 2 | 220 | 4.8 | 4.8 | 0.00 | 0.00 | 0.00 | 81 | 1017.0 |
| 20260504042704 | 2 | 220 | 4.8 | 4.8 | 0.00 | 0.00 | 0.00 | 81 | 1017.1 |
| 20260504042204 | 2 | 220 | 4.8 | 4.8 | 0.00 | 0.00 | 0.00 | 81 | 1017.1 |
| 20260504041704 | 2 | 220 | 4.8 | 4.8 | 0.00 | 0.00 | 0.00 | 81 | 1017.2 |
| 20260504041204 | 2 | 220 | 4.8 | 4.8 | 0.00 | 0.00 | 0.00 | 80 | 1017.2 |
| 20260504040204 | 2 | 220 | 4.8 | 4.8 | 0.00 | 0.00 | 0.00 | 80 | 1017.3 |
| 20260504035704 | 2 | 220 | 4.8 | 4.8 | 0.00 | 0.00 | 0.00 | 79 | 1017.2 |
| 20260504035204 | 2 | 220 | 4.8 | 4.8 | 0.00 | 0.00 | 0.00 | 79 | 1017.1 |
| 20260504034704 | 2 | 220 | 4.8 | 4.8 | 0.00 | 0.00 | 0.00 | 80 | 1017.1 |
| 20260504034204 | 2 | 220 | 4.8 | 4.8 | 0.00 | 0.00 | 0.00 | 80 | 1017.1 |
| 20260504033706 | 2 | 220 | 4.8 | 4.8 | 0.00 | 0.00 | 0.00 | 79 | 1016.9 |
| 20260504033204 | 2 | 220 | 4.8 | 4.8 | 0.00 | 0.00 | 0.00 | 79 | 1017.1 |
| 20260504032704 | 2 | 220 | 4.8 | 4.8 | 0.00 | 0.00 | 0.00 | 79 | 1017.0 |
| 20260504032204 | 2 | 220 | 4.8 | 4.8 | 0.00 | 0.00 | 0.00 | 78 | 1017.2 |
| 20260504031704 | 2 | 220 | 4.8 | 4.8 | 0.00 | 0.00 | 0.00 | 78 | 1017.2 |
| 20260504031204 | 2 | 220 | 4.8 | 4.8 | 0.00 | 0.00 | 0.00 | 77 | 1017.1 |
| 20260504030703 | 2 | 220 | 4.8 | 4.8 | 0.00 | 0.00 | 0.00 | 77 | 1017.1 |
| 20260504030204 | 2 | 220 | 4.8 | 4.8 | 0.00 | 0.00 | 0.00 | 76 | 1017.1 |
| 20260504025704 | 3 | 220 | 4.8 | 4.8 | 0.00 | 0.00 | 0.00 | 76 | 1017.1 |
| 20260504025204 | 3 | 220 | 4.8 | 4.8 | 0.00 | 0.00 | 0.00 | 76 | 1017.0 |
| 20260504024704 | 3 | 220 | 4.8 | 4.8 | 0.00 | 0.00 | 0.00 | 75 | 1017.0 |
| 20260504023703 | 3 | 220 | 4.8 | 4.8 | 0.00 | 0.00 | 0.00 | 74 | 1017.1 |
| 20260504023203 | 3 | 220 | 4.8 | 4.8 | 0.00 | 0.00 | 0.00 | 74 | 1017.0 |
| 20260504022704 | 3 | 220 | 4.8 | 4.8 | 0.00 | 0.00 | 0.00 | 73 | 1017.0 |
| 20260504021703 | 3 | 220 | 4.8 | 4.8 | 0.00 | 0.00 | 0.00 | 72 | 1017.0 |
| 20260504021204 | 3 | 220 | 4.8 | 4.8 | 0.00 | 0.00 | 0.00 | 71 | 1017.0 |
| 20260504020204 | 4 | 220 | 4.8 | 4.8 | 0.00 | 0.00 | 0.00 | 71 | 1017.1 |
| 20260504015703 | 4 | 220 | 4.8 | 4.8 | 0.00 | 0.00 | 0.00 | 70 | 1017.1 |
| 20260504015204 | 4 | 220 | 4.8 | 4.8 | 0.00 | 0.00 | 0.00 | 70 | 1016.9 |
| 20260504014704 | 5 | 220 | 4.8 | 4.8 | 0.00 | 0.00 | 0.00 | 69 | 1016.9 |
| 20260504013703 | 5 | 220 | 4.8 | 4.8 | 0.00 | 0.00 | 0.00 | 67 | 1016.8 |
| 20260504013204 | 5 | 220 | 4.8 | 4.8 | 0.00 | 0.00 | 0.00 | 67 | 1016.7 |
| 20260504012703 | 5 | 220 | 4.8 | 4.8 | 0.00 | 0.00 | 0.00 | 65 | 1016.6 |
| 20260504012204 | 5 | 220 | 4.8 | 4.8 | 0.00 | 0.00 | 0.00 | 65 | 1016.6 |
| 20260504011204 | 6 | 220 | 4.8 | 4.8 | 0.00 | 0.00 | 0.00 | 63 | 1016.6 |
| 20260504010704 | 6 | 220 | 4.8 | 4.8 | 0.00 | 0.00 | 0.00 | 63 | 1016.6 |
| 20260504010204 | 6 | 221 | 9.7 | 12.9 | 0.00 | 0.00 | 0.00 | 62 | 1016.5 |
| 20260504005204 | 7 | 230 | 12.9 | 12.9 | 0.00 | 0.00 | 0.00 | 60 | 1016.4 |
| 20260504004704 | 7 | 230 | 12.9 | 12.9 | 0.00 | 0.00 | 0.00 | 59 | 1016.4 |
| 20260504004203 | 7 | 230 | 12.9 | 12.9 | 0.00 | 0.00 | 0.00 | 58 | 1016.2 |
| 20260504003704 | 7 | 230 | 12.9 | 12.9 | 0.00 | 0.00 | 0.00 | 58 | 1016.3 |
| 20260504003203 | 8 | 230 | 12.9 | 12.9 | 0.00 | 0.00 | 0.00 | 55 | 1016.2 |
| 20260504002704 | 8 | 230 | 12.9 | 12.9 | 0.00 | 0.00 | 0.00 | 55 | 1016.2 |
| 20260504002204 | 8 | 230 | 12.9 | 12.9 | 0.00 | 0.00 | 0.00 | 54 | 1016.2 |
| 20260504001203 | 8 | 230 | 12.9 | 12.9 | 0.00 | 0.00 | 0.00 | 53 | 1016.0 |
| 20260504000704 | 8 | 230 | 12.9 | 12.9 | 0.00 | 0.00 | 0.00 | 52 | 1016.0 |
| 20260504000204 | 9 | 231 | 16.1 | 20.9 | 0.00 | 0.00 | 0.00 | 52 | 1016.0 |
| 20260503235703 | 9 | 240 | 20.9 | 20.9 | 0.00 | 0.00 | 0.00 | 52 | 1016.1 |
| 20260503235204 | 9 | 240 | 20.9 | 20.9 | 0.00 | 0.00 | 0.00 | 49 | 1016.0 |
| 20260503234204 | 10 | 240 | 20.9 | 20.9 | 0.00 | 0.00 | 0.00 | 48 | 1016.1 |
| 20260503233704 | 10 | 240 | 20.9 | 20.9 | 0.00 | 0.00 | 0.00 | 48 | 1015.9 |
| 20260503233203 | 10 | 240 | 20.9 | 20.9 | 0.00 | 0.00 | 0.00 | 47 | 1015.9 |
| 20260503232204 | 10 | 240 | 20.9 | 20.9 | 0.00 | 0.00 | 0.00 | 46 | 1015.9 |
| 20260503231704 | 10 | 240 | 20.9 | 20.9 | 0.00 | 0.00 | 0.00 | 46 | 1015.9 |
| 20260503231204 | 10 | 240 | 20.9 | 20.9 | 0.00 | 0.00 | 0.00 | 45 | 1015.8 |
| 20260503230704 | 10 | 240 | 20.9 | 20.9 | 0.00 | 0.00 | 0.00 | 45 | 1015.8 |
| 20260503230203 | 10 | 240 | 20.9 | 33.8 | 0.00 | 0.00 | 0.00 | 45 | 1015.9 |
| 20260503225704 | 11 | 250 | 20.9 | 33.8 | 0.00 | 0.00 | 0.00 | 44 | 1015.8 |
| 20260503225204 | 11 | 250 | 20.9 | 33.8 | 0.00 | 0.00 | 0.00 | 43 | 1015.8 |
| 20260503224704 | 11 | 250 | 20.9 | 33.8 | 0.00 | 0.00 | 0.00 | 42 | 1015.8 |
| 20260503224203 | 11 | 250 | 20.9 | 33.8 | 0.00 | 0.00 | 0.00 | 40 | 1015.9 |
| 20260503223704 | 11 | 250 | 20.9 | 33.8 | 0.00 | 0.00 | 0.00 | 39 | 1015.9 |
| 20260503222703 | 11 | 250 | 20.9 | 33.8 | 0.00 | 0.00 | 0.00 | 35 | 1015.9 |
| 20260503222204 | 11 | 250 | 20.9 | 33.8 | 0.00 | 0.00 | 0.00 | 38 | 1015.9 |
| 20260503221704 | 11 | 250 | 20.9 | 33.8 | 0.00 | 0.00 | 0.00 | 37 | 1016.0 |
| 20260503221204 | 12 | 250 | 20.9 | 33.8 | 0.00 | 0.00 | 0.00 | 34 | 1015.9 |
| 20260503220704 | 12 | 250 | 20.9 | 33.8 | 0.00 | 0.00 | 0.00 | 34 | 1016.0 |
| 20260503220204 | 12 | 250 | 20.9 | 33.8 | 0.00 | 0.00 | 0.00 | 33 | 1015.9 |
| 20260503215204 | 12 | 260 | 22.5 | 33.8 | 0.00 | 0.00 | 0.00 | 33 | 1016.0 |
| 20260503214204 | 13 | 260 | 22.5 | 33.8 | 0.00 | 0.00 | 0.00 | 35 | 1016.1 |
| 20260503213704 | 13 | 260 | 22.5 | 33.8 | 0.00 | 0.00 | 0.00 | 34 | 1016.1 |
| 20260503212704 | 13 | 260 | 22.5 | 33.8 | 0.00 | 0.00 | 0.00 | 32 | 1016.1 |
| 20260503212203 | 14 | 260 | 22.5 | 33.8 | 0.00 | 0.00 | 0.00 | 31 | 1016.0 |
| 20260503211704 | 14 | 260 | 22.5 | 33.8 | 0.00 | 0.00 | 0.00 | 33 | 1016.0 |
| 20260503211204 | 14 | 260 | 22.5 | 33.8 | 0.00 | 0.00 | 0.00 | 32 | 1016.2 |
| 20260503210703 | 14 | 260 | 22.5 | 33.8 | 0.00 | 0.00 | 0.00 | 34 | 1016.2 |
| 20260503210203 | 13 | 259 | 22.5 | 37.0 | 0.00 | 0.00 | 0.00 | 36 | 1016.3 |
| 20260503205704 | 13 | 230 | 22.5 | 37.0 | 0.00 | 0.00 | 0.00 | 31 | 1016.1 |
| 20260503205204 | 13 | 230 | 22.5 | 37.0 | 0.00 | 0.00 | 0.00 | 32 | 1016.2 |
| 20260503204703 | 14 | 230 | 22.5 | 37.0 | 0.00 | 0.00 | 0.00 | 33 | 1016.4 |
| 20260503204204 | 14 | 230 | 22.5 | 37.0 | 0.00 | 0.00 | 0.00 | 34 | 1016.4 |
| 20260503203704 | 14 | 230 | 22.5 | 37.0 | 0.00 | 0.00 | 0.00 | 33 | 1016.4 |
| 20260503203204 | 14 | 230 | 22.5 | 37.0 | 0.00 | 0.00 | 0.00 | 32 | 1016.5 |
| 20260503202704 | 14 | 230 | 22.5 | 37.0 | 0.00 | 0.00 | 0.00 | 34 | 1016.6 |
| 20260503202204 | 14 | 230 | 22.5 | 37.0 | 0.00 | 0.00 | 0.00 | 31 | 1016.6 |
| 20260503201704 | 15 | 230 | 22.5 | 37.0 | 0.00 | 0.00 | 0.00 | 30 | 1016.7 |
| 20260503201204 | 14 | 230 | 22.5 | 37.0 | 0.00 | 0.00 | 0.00 | 35 | 1016.8 |
| 20260503200704 | 14 | 230 | 22.5 | 37.0 | 0.00 | 0.00 | 0.00 | 34 | 1016.8 |
| 20260503200204 | 13 | 230 | 19.3 | 37.0 | 0.00 | 0.00 | 0.00 | 33 | 1016.8 |
| 20260503195204 | 14 | 250 | 16.1 | 29.0 | 0.00 | 0.00 | 0.00 | 33 | 1016.9 |
| 20260503194704 | 13 | 250 | 16.1 | 29.0 | 0.00 | 0.00 | 0.00 | 33 | 1017.0 |
| 20260503193703 | 13 | 250 | 16.1 | 29.0 | 0.00 | 0.00 | 0.00 | 30 | 1017.0 |
| 20260503193203 | 13 | 250 | 16.1 | 29.0 | 0.00 | 0.00 | 0.00 | 30 | 1017.1 |
| 20260503192703 | 13 | 250 | 16.1 | 29.0 | 0.00 | 0.00 | 0.00 | 28 | 1017.1 |
| 20260503192204 | 13 | 250 | 16.1 | 29.0 | 0.00 | 0.00 | 0.00 | 31 | 1017.1 |
| 20260503191704 | 13 | 250 | 16.1 | 29.0 | 0.00 | 0.00 | 0.00 | 33 | 1017.2 |
| 20260503191204 | 13 | 250 | 16.1 | 29.0 | 0.00 | 0.00 | 0.00 | 33 | 1017.3 |
| 20260503190704 | 13 | 250 | 16.1 | 29.0 | 0.00 | 0.00 | 0.00 | 35 | 1017.4 |
| 20260503190204 | 12 | 249 | 11.3 | 33.8 | 0.00 | 0.00 | 0.00 | 33 | 1017.3 |
| 20260503185703 | 12 | 170 | 8.0 | 33.8 | 0.00 | 0.00 | 0.00 | 35 | 1017.5 |
| 20260503184703 | 12 | 170 | 8.0 | 33.8 | 0.00 | 0.00 | 0.00 | 29 | 1017.5 |
| 20260503184204 | 12 | 170 | 8.0 | 33.8 | 0.00 | 0.00 | 0.00 | 34 | 1017.5 |
| 20260503183704 | 12 | 170 | 8.0 | 33.8 | 0.00 | 0.00 | 0.00 | 32 | 1017.5 |
| 20260503183204 | 12 | 170 | 8.0 | 33.8 | 0.00 | 0.00 | 0.00 | 33 | 1017.6 |
| 20260503182704 | 12 | 170 | 8.0 | 33.8 | 0.00 | 0.00 | 0.00 | 33 | 1017.6 |
| 20260503182204 | 12 | 170 | 8.0 | 33.8 | 0.00 | 0.00 | 0.00 | 36 | 1017.7 |
| 20260503181704 | 12 | 170 | 8.0 | 33.8 | 0.00 | 0.00 | 0.00 | 32 | 1017.8 |
| 20260503181205 | 12 | 170 | 8.0 | 33.8 | 0.00 | 0.00 | 0.00 | 37 | 1017.8 |
| 20260503180704 | 12 | 170 | 8.0 | 33.8 | 0.00 | 0.00 | 0.00 | 33 | 1017.7 |
| 20260503175704 | 11 | 230 | 9.7 | 9.7 | 0.00 | 0.00 | 0.00 | 33 | 1017.9 |
| 20260503175204 | 12 | 230 | 9.7 | 9.7 | 0.00 | 0.00 | 0.00 | 33 | 1017.9 |
| 20260503174704 | 12 | 230 | 9.7 | 9.7 | 0.00 | 0.00 | 0.00 | 33 | 1017.9 |
| 20260503174204 | 11 | 230 | 9.7 | 9.7 | 0.00 | 0.00 | 0.00 | 34 | 1018.0 |
| 20260503173704 | 11 | 230 | 9.7 | 9.7 | 0.00 | 0.00 | 0.00 | 36 | 1018.0 |
| 20260503172704 | 11 | 230 | 9.7 | 9.7 | 0.00 | 0.00 | 0.00 | 35 | 1018.3 |
| 20260503172203 | 11 | 230 | 9.7 | 9.7 | 0.00 | 0.00 | 0.00 | 32 | 1018.3 |
| 20260503171704 | 11 | 230 | 9.7 | 9.7 | 0.00 | 0.00 | 0.00 | 36 | 1018.4 |
| 20260503170704 | 11 | 230 | 9.7 | 9.7 | 0.00 | 0.00 | 0.00 | 33 | 1018.6 |
| 20260503170204 | 11 | 231 | 9.7 | 11.3 | 0.00 | 0.00 | 0.00 | 36 | 1018.6 |
| 20260503160204 | 8 | 263 | 14.5 | 33.8 | 0.00 | 0.00 | 0.00 | 37 | 1018.8 |